[[{"header":{"parameterUnit":"m.s-1","parameterCategory":1,"la1":30.2991,"la2":30.254,"lo1":-89.0895,"lo2":-89.0444,"dy":0.0017,"dx":0.0017,"nx":28,"ny":28,"refTime":"2024-12-01T03:00:00:Z","depth":0,"parameterNumber":2,"parameterNumberName":"U-component_of_WINDS"},"data":[0,0,0,0,0,0,0,0,0,0,0,0,0,0,0,0,0,0,0,0,0,0,0,0,0,0,0,0,0,0,0,0,0,0,0,0,0,0,0,0,0,0,0,0,0,0,0,0,0,0,0,0,0,0,0,0,0,0,-0.4092,-0.4092,0,-0.41,-0.41,-0.41,-0.4106,-0.4106,-0.4106,-0.4106,-0.4113,-0.4114,-0.4114,0,0,0,0,0,0,0,0,0,0,0,0,0,-0.4079,-0.4079,-0.4092,-0.4092,-0.4092,-0.41,-0.41,-0.41,-0.4106,-0.4106,-0.4106,-0.4106,-0.4113,-0.4114,-0.4114,0,0,0,0,0,0,0,0,0,0,0,0,0,-0.4086,-0.408,-0.4092,-0.4096,-0.4096,-0.41,-0.41,-0.41,-0.4106,-0.4106,-0.4106,-0.4106,-0.4113,-0.4114,-0.4114,-0.4114,0,0,-0.4115,-0.4115,0,0,0,0,0,0,0,0,-0.4085,-0.4086,-0.4095,-0.4095,-0.4096,-0.4102,-0.4098,-0.4105,-0.4106,-0.4102,-0.4106,-0.4106,-0.4109,-0.411,-0.4111,-0.4114,-0.4115,-0.4115,-0.4115,-0.4115,-0.4115,0,0,0,0,0,0,0,-0.4085,-0.4086,-0.4095,-0.4095,-0.4096,-0.4096,-0.4097,-0.41,-0.4105,-0.4102,-0.4103,-0.4104,-0.411,-0.4111,-0.4112,-0.4115,-0.4115,-0.4115,-0.4115,-0.4115,-0.4116,-0.4116,0,0,0,0,0,0,-0.4084,-0.4085,-0.4095,-0.4095,-0.4091,-0.4097,-0.4098,-0.41,-0.4105,-0.4106,-0.4104,-0.4104,-0.4111,-0.4111,-0.4112,-0.4111,-0.4115,-0.4115,-0.4115,-0.4116,-0.4116,-0.4116,0,0,0,0,0,0,-0.4084,-0.4085,-0.4094,-0.409,-0.4092,-0.4097,-0.4099,-0.41,-0.4101,-0.4106,-0.4107,-0.4104,-0.4111,-0.4112,-0.4113,-0.4112,-0.4115,-0.4115,-0.4116,-0.4116,-0.4116,-0.4111,0,0,0,0,0,0,-0.4083,-0.4085,-0.4085,-0.409,-0.4092,-0.4096,-0.4099,-0.41,-0.4102,-0.4102,-0.4107,-0.4108,-0.4111,-0.4113,-0.4113,-0.4112,-0.4116,-0.4116,-0.4116,-0.4116,-0.4111,-0.411,-0.411,0,0,0,0,0,-0.4083,-0.4084,-0.4085,-0.4087,-0.4093,-0.4096,-0.4097,-0.4101,-0.4102,-0.4102,-0.4105,-0.4108,-0.4112,-0.4113,-0.4113,-0.4112,-0.4116,-0.4116,-0.4116,-0.4111,-0.4111,-0.411,0,0,0,0,0,0,-0.4079,-0.4085,-0.4087,-0.4089,-0.4092,-0.4097,-0.4098,-0.41,-0.4102,-0.4103,-0.4107,-0.4108,-0.4108,-0.411,-0.4112,-0.4112,-0.4114,-0.4114,-0.411,-0.411,-0.4109,-0.4109,-0.4116,0,0,0,0,0,-0.4078,-0.4081,-0.4085,-0.4087,-0.4089,-0.4093,-0.4094,-0.4097,-0.41,-0.4101,-0.4104,-0.4106,-0.4108,-0.4109,-0.4111,-0.4111,-0.4111,-0.4111,-0.411,-0.4109,-0.4109,-0.4108,-0.4107,-0.4115,-0.4115,-0.4115,0,0,-0.4078,-0.4081,-0.4082,-0.4087,-0.4089,-0.4091,-0.4094,-0.4096,-0.4097,-0.4101,-0.4102,-0.4104,-0.4107,-0.4108,-0.4108,-0.4109,-0.4107,-0.4109,-0.4109,-0.4109,-0.4108,-0.4107,-0.4106,-0.4115,-0.4115,-0.4115,0,0,-0.4076,-0.408,-0.4081,-0.4083,-0.4086,-0.4089,-0.4089,-0.4093,-0.4094,-0.4096,-0.4098,-0.4099,-0.4102,-0.4104,-0.4105,-0.4102,-0.4104,-0.4102,-0.4099,-0.4098,-0.4097,-0.4097,-0.4095,-0.4094,-0.4102,-0.4102,-0.4102,0,-0.4075,-0.4078,-0.4081,-0.4083,-0.4084,-0.4087,-0.4088,-0.409,-0.4093,-0.4094,-0.4095,-0.4098,-0.41,-0.41,-0.4099,-0.41,-0.41,-0.4102,-0.4097,-0.4097,-0.4096,-0.4094,-0.4094,-0.4102,-0.4102,-0.4102,-0.4102,0,-0.4075,-0.4077,-0.4077,-0.408,-0.4082,-0.4083,-0.4085,-0.4086,-0.4088,-0.409,-0.409,-0.4092,-0.4094,-0.4094,-0.4096,-0.4094,-0.4094,-0.4096,-0.4099,-0.4095,-0.4093,-0.4093,-0.4101,-0.4101,-0.4101,-0.4101,0,0,-0.4074,-0.4077,-0.4077,-0.4078,-0.4081,-0.4082,-0.4082,-0.4083,-0.4083,-0.4085,-0.4085,-0.4086,-0.4088,-0.4089,-0.4091,-0.409,-0.4085,-0.4091,-0.4091,-0.409,-0.4082,-0.408,-0.408,-0.4087,-0.4087,-0.4086,-0.4081,0,-0.4073,-0.4074,-0.4076,-0.4076,-0.4077,-0.4079,-0.4079,-0.408,-0.4082,-0.4082,-0.4083,-0.4084,-0.4086,-0.4086,-0.4085,-0.4086,-0.4084,-0.4087,-0.4086,-0.4086,-0.4085,-0.4079,-0.4078,-0.4073,-0.4081,-0.4081,-0.4081,0,-0.4073,-0.4073,-0.4074,-0.4075,-0.4075,-0.4075,-0.4076,-0.4076,-0.4077,-0.4078,-0.4078,-0.408,-0.4079,-0.4081,-0.4079,-0.4081,-0.408,-0.4081,-0.408,-0.4081,-0.4083,-0.4078,-0.4072,-0.4071,-0.408,-0.408,-0.408,0,-0.407,-0.4072,-0.4072,-0.4072,-0.4074,-0.4074,-0.4074,-0.4075,-0.4075,-0.4075,-0.4075,-0.4075,-0.4075,-0.4074,-0.4075,-0.4077,-0.4073,-0.4075,-0.4073,-0.4073,-0.4072,-0.4072,-0.4065,-0.4072,-0.4072,-0.4072,-0.4072,0,-0.4069,-0.4069,-0.4071,-0.4071,-0.407,-0.4072,-0.4071,-0.4071,-0.4071,-0.4071,-0.4072,-0.4072,-0.4073,-0.4072,-0.4073,-0.407,-0.4071,-0.407,-0.4071,-0.407,-0.407,-0.407,-0.4071,-0.4072,-0.4072,-0.4072,-0.4072,0,-0.4067,-0.4069,-0.4068,-0.4069,-0.4069,-0.4069,-0.4069,-0.4068,-0.4069,-0.4068,-0.4068,-0.4068,-0.4067,-0.4068,-0.4067,-0.4067,-0.4064,-0.4064,-0.4064,-0.4064,-0.4061,-0.4061,-0.4053,-0.4052,-0.406,-0.406,-0.406,0,-0.4067,-0.4067,-0.4067,-0.4066,-0.4067,-0.4066,-0.4066,-0.4067,-0.4066,-0.4066,-0.4065,-0.4064,-0.4063,-0.406,-0.406,-0.4059,-0.4059,-0.4056,-0.4059,-0.4058,-0.4059,-0.4059,-0.4058,-0.4056,-0.4056,-0.4056,-0.4056,0,-0.4065,-0.4065,-0.4065,-0.4064,-0.4064,-0.4063,-0.4063,-0.4062,-0.4063,-0.4062,-0.406,-0.4059,-0.4057,-0.4056,-0.4054,-0.4054,-0.4055,-0.4055,-0.4054,-0.4054,-0.4053,-0.4053,-0.4062,-0.4055,-0.4055,-0.4055,-0.4055,-0.4055,-0.4064,-0.4063,-0.4063,-0.4062,-0.4061,-0.406,-0.4059,-0.4059,-0.4058,-0.4056,-0.4056,-0.4054,-0.4053,-0.4051,-0.405,-0.4048,-0.4049,-0.4048,-0.4048,-0.4047,-0.4047,-0.4053,-0.4047,-0.4047,-0.4047,-0.4047,-0.4047,0,-0.4062,-0.4061,-0.406,-0.4059,-0.4058,-0.4058,-0.4057,-0.4056,-0.4054,-0.4053,-0.4051,-0.4049,-0.4046,-0.4045,-0.4043,-0.4041,-0.4041,-0.4041,-0.4041,-0.404,-0.4046,-0.4047,-0.404,-0.404,-0.404,-0.404,-0.404,-0.404,-0.4061,-0.4059,-0.4059,-0.4056,-0.4055,-0.4053,-0.4052,-0.4051,-0.405,-0.4047,-0.4045,-0.4044,-0.4042,-0.4039,-0.4037,-0.4036,-0.4035,-0.4034,-0.4034,-0.4039,-0.404,-0.4041,-0.4042,-0.4034,-0.4034,-0.4028,-0.4028,-0.4028]},{"header":{"parameterUnit":"m.s-1","parameterCategory":1,"la1":30.2991,"la2":30.254,"lo1":-89.0895,"lo2":-89.0444,"dy":0.0017,"dx":0.0017,"nx":28,"ny":28,"refTime":"2024-12-01T03:00:00:Z","depth":0,"parameterNumber":3,"parameterNumberName":"V-component_of_WINDS"},"data":[0,0,0,0,0,0,0,0,0,0,0,0,0,0,0,0,0,0,0,0,0,0,0,0,0,0,0,0,0,0,0,0,0,0,0,0,0,0,0,0,0,0,0,0,0,0,0,0,0,0,0,0,0,0,0,0,0,0,-2.7376,-2.7377,0,-2.7478,-2.7479,-2.748,-2.7505,-2.7505,-2.7504,-2.7503,-2.7604,-2.7607,-2.7611,0,0,0,0,0,0,0,0,0,0,0,0,0,-2.72,-2.7203,-2.7376,-2.7377,-2.7379,-2.7478,-2.7479,-2.748,-2.7505,-2.7505,-2.7504,-2.7503,-2.7603,-2.7607,-2.7611,0,0,0,0,0,0,0,0,0,0,0,0,0,-2.7286,-2.7204,-2.7376,-2.7403,-2.7407,-2.7477,-2.7479,-2.7481,-2.7506,-2.7505,-2.7504,-2.7503,-2.7602,-2.7607,-2.7611,-2.7661,0,0,-2.7627,-2.7629,0,0,0,0,0,0,0,0,-2.7281,-2.7293,-2.7398,-2.7401,-2.7405,-2.7478,-2.7454,-2.7541,-2.7506,-2.7468,-2.7503,-2.7502,-2.7563,-2.7571,-2.7592,-2.7666,-2.767,-2.7627,-2.763,-2.7632,-2.7633,0,0,0,0,0,0,0,-2.7275,-2.7289,-2.7416,-2.7399,-2.7404,-2.7409,-2.742,-2.7471,-2.7519,-2.7471,-2.7473,-2.7485,-2.7565,-2.7587,-2.7594,-2.7672,-2.7627,-2.7631,-2.7634,-2.7636,-2.7791,-2.7792,0,0,0,0,0,0,-2.7265,-2.7283,-2.7413,-2.7419,-2.734,-2.7413,-2.7426,-2.7456,-2.7519,-2.7528,-2.7486,-2.7486,-2.7579,-2.7589,-2.7598,-2.766,-2.7632,-2.7637,-2.7639,-2.779,-2.7791,-2.7793,0,0,0,0,0,0,-2.7261,-2.7277,-2.7409,-2.7352,-2.7369,-2.7417,-2.7451,-2.7458,-2.7481,-2.753,-2.7539,-2.75,-2.7579,-2.7591,-2.7645,-2.7664,-2.7639,-2.7643,-2.7789,-2.779,-2.7792,-2.7784,0,0,0,0,0,0,-2.7256,-2.7275,-2.7295,-2.7352,-2.7372,-2.7455,-2.7452,-2.7461,-2.749,-2.7491,-2.7546,-2.7554,-2.7579,-2.7638,-2.765,-2.767,-2.7647,-2.7787,-2.7789,-2.7791,-2.7783,-2.7785,-2.7787,0,0,0,0,0,-2.725,-2.7288,-2.7296,-2.7312,-2.7399,-2.7457,-2.7468,-2.7497,-2.7491,-2.7511,-2.7543,-2.7552,-2.766,-2.7643,-2.7657,-2.7679,-2.7786,-2.7789,-2.7791,-2.7782,-2.7785,-2.7787,0,0,0,0,0,0,-2.7231,-2.7296,-2.7306,-2.7364,-2.7405,-2.7461,-2.7487,-2.7499,-2.7541,-2.754,-2.7574,-2.7586,-2.7638,-2.7664,-2.7644,-2.773,-2.7723,-2.7728,-2.7711,-2.7714,-2.7716,-2.7708,-2.7651,0,0,0,0,0,-2.7234,-2.7277,-2.7331,-2.7377,-2.7397,-2.7439,-2.7465,-2.7484,-2.7527,-2.7544,-2.7579,-2.762,-2.7663,-2.769,-2.7732,-2.7787,-2.7799,-2.7809,-2.7811,-2.7813,-2.7817,-2.7847,-2.7851,-2.7801,-2.7801,-2.7801,0,0,-2.724,-2.7281,-2.7305,-2.7374,-2.7408,-2.745,-2.7453,-2.7497,-2.7529,-2.755,-2.7604,-2.7631,-2.7678,-2.7733,-2.7759,-2.7756,-2.7833,-2.7816,-2.7817,-2.782,-2.785,-2.7854,-2.7859,-2.7803,-2.7803,-2.7802,0,0,-2.7272,-2.7308,-2.735,-2.7384,-2.7435,-2.7463,-2.7473,-2.7527,-2.7546,-2.7601,-2.7618,-2.7655,-2.7728,-2.7761,-2.7787,-2.7832,-2.7842,-2.7845,-2.7856,-2.7885,-2.7889,-2.7892,-2.7907,-2.7912,-2.7849,-2.7849,-2.7849,0,-2.7272,-2.7338,-2.737,-2.7414,-2.7443,-2.7466,-2.7508,-2.7539,-2.7601,-2.762,-2.7617,-2.7709,-2.7743,-2.7805,-2.7816,-2.7837,-2.7848,-2.7838,-2.7886,-2.789,-2.7894,-2.7908,-2.7913,-2.7849,-2.7849,-2.7849,-2.7849,0,-2.7335,-2.738,-2.7408,-2.7468,-2.7501,-2.7543,-2.7581,-2.761,-2.7626,-2.7653,-2.7708,-2.7749,-2.7799,-2.7816,-2.7832,-2.788,-2.7877,-2.7879,-2.7872,-2.7898,-2.7912,-2.7918,-2.7849,-2.7849,-2.7849,-2.7849,0,0,-2.7357,-2.7435,-2.7445,-2.7472,-2.7531,-2.7565,-2.7609,-2.7659,-2.7683,-2.7725,-2.7761,-2.7823,-2.7826,-2.7856,-2.7875,-2.7901,-2.7932,-2.79,-2.7902,-2.7904,-2.7986,-2.7983,-2.7989,-2.794,-2.7941,-2.7942,-2.7982,0,-2.7396,-2.7475,-2.7505,-2.7569,-2.7611,-2.7633,-2.7671,-2.771,-2.7736,-2.7774,-2.7803,-2.7846,-2.7847,-2.7865,-2.7892,-2.7923,-2.7949,-2.792,-2.7972,-2.7973,-2.7958,-2.7997,-2.7993,-2.8029,-2.7988,-2.7989,-2.7989,0,-2.7451,-2.7494,-2.7563,-2.7616,-2.7634,-2.7668,-2.7716,-2.7753,-2.7797,-2.7815,-2.7848,-2.7867,-2.7912,-2.7903,-2.7965,-2.7945,-2.7968,-2.7986,-2.7988,-2.7993,-2.7982,-2.8001,-2.8042,-2.8046,-2.7999,-2.7998,-2.7997,0,-2.7459,-2.7534,-2.7585,-2.7608,-2.7671,-2.7694,-2.7721,-2.7765,-2.7794,-2.7836,-2.7854,-2.7901,-2.7926,-2.7961,-2.7991,-2.7982,-2.8049,-2.8043,-2.8063,-2.8063,-2.8076,-2.8074,-2.8119,-2.8093,-2.8092,-2.8092,-2.8092,0,-2.7497,-2.7538,-2.7589,-2.762,-2.7666,-2.77,-2.7744,-2.7773,-2.7812,-2.7848,-2.787,-2.7903,-2.7941,-2.7979,-2.8003,-2.8049,-2.8061,-2.8075,-2.8081,-2.8073,-2.807,-2.8087,-2.8085,-2.8094,-2.8093,-2.8093,-2.8093,0,-2.7513,-2.755,-2.7606,-2.7662,-2.7677,-2.7708,-2.7755,-2.7785,-2.7813,-2.7858,-2.7871,-2.7914,-2.796,-2.7994,-2.8052,-2.8068,-2.8118,-2.8124,-2.8103,-2.8105,-2.8123,-2.8121,-2.8179,-2.8188,-2.8157,-2.8157,-2.8157,0,-2.7535,-2.7567,-2.7626,-2.7653,-2.768,-2.7722,-2.7751,-2.7786,-2.7815,-2.7868,-2.7892,-2.7939,-2.7979,-2.805,-2.8086,-2.8131,-2.8138,-2.8155,-2.8144,-2.8135,-2.8136,-2.8134,-2.8136,-2.8156,-2.8156,-2.8156,-2.8157,0,-2.7569,-2.7586,-2.7628,-2.7676,-2.771,-2.775,-2.7789,-2.7809,-2.7851,-2.7882,-2.793,-2.796,-2.8021,-2.8067,-2.8115,-2.8142,-2.8156,-2.816,-2.8167,-2.8158,-2.8144,-2.8151,-2.8105,-2.8158,-2.8158,-2.8158,-2.8158,-2.8158,-2.7588,-2.7617,-2.7664,-2.7709,-2.7743,-2.7779,-2.7811,-2.7843,-2.7883,-2.7936,-2.7953,-2.8002,-2.8045,-2.8112,-2.8139,-2.8177,-2.8176,-2.8187,-2.8189,-2.8191,-2.8189,-2.8139,-2.8186,-2.8186,-2.8186,-2.8186,-2.8186,0,-2.7623,-2.7654,-2.7696,-2.7751,-2.7786,-2.7798,-2.7842,-2.7871,-2.7914,-2.7953,-2.7992,-2.8046,-2.8091,-2.8131,-2.8177,-2.8199,-2.8207,-2.821,-2.8208,-2.8214,-2.8188,-2.8177,-2.8203,-2.8203,-2.8203,-2.8203,-2.8203,-2.8203,-2.7645,-2.7694,-2.7716,-2.7782,-2.7813,-2.7862,-2.7886,-2.7919,-2.7951,-2.801,-2.8048,-2.8074,-2.8114,-2.8163,-2.8204,-2.8215,-2.823,-2.8232,-2.8244,-2.8218,-2.8216,-2.8214,-2.8203,-2.8235,-2.8236,-2.8267,-2.8267,-2.8267]}]]